C/2019 K5 ( Young )

Japanese version
Home page
Updated on December 9, 2019

---------------------------------------------------------------------

* Profile

Discovery Date May 25, 2019
Magnitude 17.1 mag
Discoverer David Young (Asteroid Terrestrial-Impact Last Alert System (ATLAS) search program)

* Pictures

* Orbital Elements

Epoch 2019 June 6.0 TT = JDT 2458640.5
T 2019 June 22.74522 TT                                 Williams
q   2.0350402            (2000.0)            P               Q
z  +0.0066365      Peri.  174.91367     +0.99066963     +0.13566821
 +/-0.0000020      Node   177.18872     -0.13249462     +0.98101705
e   0.9864944      Incl.   15.31570     -0.03191974     +0.13856294
From 421 observations 2018 June 17-2019 Nov. 1, mean residual 0".4.

* Finding Charts

* Magnitudes Graph

        m1 = 10.0 + 5 log d + 13.5 log r(t - 50)

---------------------------------------------------------------------

The orbital elements are published on M.P.E.C. 2019-V116.
The charts are made with StellaNavigator Ver.10 (AstroArts).
The magnitudes graphs are made with Comet for Windows.

---------------------------------------------------------------------

Copyright(C) Seiichi Yoshida (comet@aerith.net). All rights reserved.